Flag for U.S.A. Weather past 2 weeks in Tempe, Arizona, U.S.A.

Now
83 °F

Partly sunny.


Feels Like: 86 °F
Forecast: 82 / 103 °F
Wind: 7 mph from Northwest

Location: Phoenix Sky Harbor International Airport

Current Time: Aug 1, 2015 at 7:08:47 AM

Latest Report: Aug 1, 2015 at 5:51 AM


Visibility: 10 mi

Pressure: 29.85 "Hg

Humidity: 63%

Dew point: 69 °F

Location of TempeLocation

Historic Weather in Tempe — Graph

°F

Tempe temperature yesterday

Maximum temperature yesterday: 108 °F (at 2:51 PM)
Minimum temperature yesterday: 79 °F (at 5:51 PM)
Average temperature yesterday: 92 °F

Past Weeks' High & Low Weather Summary

 TemperatureHumidityPressure
High108 °F (Jul 25, 2:51 PM)88% (Jul 18, 9:51 PM)30.00 "Hg (Jul 18, 9:51 PM)
Low76 °F (Jul 18, 9:51 PM)5% (Jul 25, 5:51 PM)29.63 "Hg (Jul 21, 5:51 PM)
Average94 °F31%29.81 "Hg
* Reported Jul 17 5:51 AM — Aug 1 5:51 AM, Tempe, Weather by CustomWeather, © 2015

Note: Actual official high and low records may vary slightly from our data, if they occured in-between our weather recording intervals... More about our weather records

Advertising

Tempe weather history for previous 24 hours

 ConditionsComfort  
Time TempWeatherWind HumidityBarometerVisibility
5:51 AM
Sat, Aug 1
83 °FPartly sunny.7 mph63%29.85 "Hg10 mi
4:51 AM83 °FOvercast.6 mph63%29.84 "Hg10 mi
3:51 AM82 °FOvercast.3 mph67%29.83 "Hg10 mi
2:51 AM82 °FOvercast.7 mph70%29.84 "Hg10 mi
1:51 AM82 °FOvercast.No wind70%29.85 "Hg10 mi
12:51 AM81 °FOvercast.3 mph74%29.87 "Hg10 mi
11:51 PM
Fri, Jul 31
81 °FOvercast.5 mph72%29.87 "Hg10 mi
10:51 PM82 °FOvercast.10 mph70%29.85 "Hg10 mi
9:51 PM81 °FOvercast.7 mph74%29.86 "Hg10 mi
8:51 PM82 °FLight rain. Mostly cloudy.10 mph67%29.89 "Hg10 mi
7:51 PM80 °FLight rain. Mostly cloudy.10 mph74%29.91 "Hg10 mi
6:51 PM83 °FThunderstorms. Mostly cloudy.16 mph65%29.88 "Hg10 mi
5:51 PM79 °FThunderstorms. Mostly cloudy.14 mph79%29.91 "Hg5 mi
4:51 PM88 °FThunderstorms. Mostly cloudy.8 mph59%29.85 "Hg6 mi
3:51 PM97 °FThunderstorms. Partly sunny.26 mph30%29.78 "Hg10 mi
2:51 PM108 °FBroken clouds.9 mph18%29.78 "Hg10 mi
1:51 PM107 °FPartly sunny.7 mph19%29.80 "Hg10 mi
12:51 PM105 °FPartly sunny.5 mph20%29.83 "Hg10 mi
11:51 AM104 °FPartly sunny.9 mph21%29.86 "Hg10 mi
10:51 AM102 °FPartly sunny.10 mph23%29.88 "Hg10 mi
9:51 AM99 °FScattered clouds.5 mph27%29.88 "Hg10 mi
8:51 AM96 °FScattered clouds.6 mph29%29.89 "Hg10 mi
7:51 AM93 °FBroken clouds.No wind33%29.90 "Hg10 mi
Weather by CustomWeather, © 2015

See weather overviewHow to use our weather pages